Year,Month,Day,Hour,Minute,Value (Times are PST for temperature in C)
2015,10,05,00,00,9.60
2015,10,05,00,01,9.60
2015,10,05,00,02,9.60
2015,10,05,00,03,9.60
2015,10,05,00,04,9.60
2015,10,05,00,05,9.60
2015,10,05,00,06,9.60
2015,10,05,00,07,9.60
2015,10,05,00,08,9.60
2015,10,05,00,09,9.60
2015,10,05,00,10,9.60
2015,10,05,00,11,9.60
2015,10,05,00,12,9.60
2015,10,05,00,13,9.60
2015,10,05,00,14,9.60
2015,10,05,00,15,9.60
2015,10,05,00,16,9.60
2015,10,05,00,17,9.60
2015,10,05,00,18,9.50
2015,10,05,00,19,9.50
2015,10,05,00,20,9.40
2015,10,05,00,21,9.40
2015,10,05,00,22,9.40
2015,10,05,00,23,9.40
2015,10,05,00,24,9.30
2015,10,05,00,25,9.30
2015,10,05,00,26,9.30
2015,10,05,00,27,9.30
2015,10,05,00,28,9.30
2015,10,05,00,29,9.20
2015,10,05,00,30,9.20
2015,10,05,00,31,9.20
2015,10,05,00,32,9.20
2015,10,05,00,33,9.10
2015,10,05,00,34,9.10
2015,10,05,00,35,9.10
2015,10,05,00,36,9.10
2015,10,05,00,37,9.10
2015,10,05,00,38,9.00
2015,10,05,00,39,9.00
2015,10,05,00,40,9.00
2015,10,05,00,41,9.00
2015,10,05,00,42,9.00
2015,10,05,00,43,8.90
2015,10,05,00,44,8.90
2015,10,05,00,45,8.90
2015,10,05,00,46,8.90
2015,10,05,00,47,8.90
2015,10,05,00,48,8.90
2015,10,05,00,49,8.90
2015,10,05,00,50,8.90
2015,10,05,00,51,8.90
2015,10,05,00,52,8.90
2015,10,05,00,53,8.90
2015,10,05,00,54,8.90
2015,10,05,00,55,8.90
2015,10,05,00,56,8.90
2015,10,05,00,57,8.90
2015,10,05,00,58,8.90
2015,10,05,00,59,8.90
2015,10,05,01,00,8.90
2015,10,05,01,01,8.90
2015,10,05,01,02,8.80
2015,10,05,01,03,8.80
2015,10,05,01,04,8.80
2015,10,05,01,05,8.80
2015,10,05,01,06,8.80
2015,10,05,01,07,8.80
2015,10,05,01,08,8.80
2015,10,05,01,09,8.80
2015,10,05,01,10,8.70
2015,10,05,01,11,8.70
2015,10,05,01,12,8.70
2015,10,05,01,13,8.70
2015,10,05,01,14,8.70
2015,10,05,01,15,8.70
2015,10,05,01,16,8.70
2015,10,05,01,17,8.60
2015,10,05,01,18,8.60
2015,10,05,01,19,8.60
2015,10,05,01,20,8.60
2015,10,05,01,21,8.60
2015,10,05,01,22,8.60
2015,10,05,01,23,8.60
2015,10,05,01,24,8.50
2015,10,05,01,25,8.50
2015,10,05,01,26,8.50
2015,10,05,01,27,8.40
2015,10,05,01,28,8.40
2015,10,05,01,29,8.40
2015,10,05,01,30,8.40
2015,10,05,01,31,8.40
2015,10,05,01,32,8.40
2015,10,05,01,33,8.40
2015,10,05,01,34,8.30
2015,10,05,01,35,8.30
2015,10,05,01,36,8.30
2015,10,05,01,37,8.30
2015,10,05,01,38,8.30
2015,10,05,01,39,8.30
2015,10,05,01,40,8.30
2015,10,05,01,41,8.30
2015,10,05,01,42,8.30
2015,10,05,01,43,8.30
2015,10,05,01,44,8.30
2015,10,05,01,45,8.30
2015,10,05,01,46,8.20
2015,10,05,01,47,8.20
2015,10,05,01,48,8.20
2015,10,05,01,49,8.20
2015,10,05,01,50,8.20
2015,10,05,01,51,8.20
2015,10,05,01,52,8.20
2015,10,05,01,53,8.20
2015,10,05,01,54,8.20
2015,10,05,01,55,8.20
2015,10,05,01,56,8.10
2015,10,05,01,57,8.10
2015,10,05,01,58,8.10
2015,10,05,01,59,8.10
2015,10,05,02,00,8.10
2015,10,05,02,01,8.10
2015,10,05,02,02,8.10
2015,10,05,02,03,8.10
2015,10,05,02,04,8.10
2015,10,05,02,05,8.00
2015,10,05,02,06,8.00
2015,10,05,02,07,8.00
2015,10,05,02,08,8.00
2015,10,05,02,09,8.00
2015,10,05,02,10,8.00
2015,10,05,02,11,8.00
2015,10,05,02,12,8.00
2015,10,05,02,13,8.00
2015,10,05,02,14,8.00
2015,10,05,02,15,8.00
2015,10,05,02,16,8.00
2015,10,05,02,17,8.00
2015,10,05,02,18,8.00
2015,10,05,02,19,8.00
2015,10,05,02,20,8.00
2015,10,05,02,21,8.00
2015,10,05,02,22,8.00
2015,10,05,02,23,8.00
2015,10,05,02,24,8.00
2015,10,05,02,25,8.00
2015,10,05,02,26,8.00
2015,10,05,02,27,8.00
2015,10,05,02,28,7.90
2015,10,05,02,29,7.90
2015,10,05,02,30,7.90
2015,10,05,02,31,7.90
2015,10,05,02,32,7.90
2015,10,05,02,33,7.90
2015,10,05,02,34,7.90
2015,10,05,02,35,7.90
2015,10,05,02,36,7.80
2015,10,05,02,37,7.80
2015,10,05,02,38,7.80
2015,10,05,02,39,7.80
2015,10,05,02,40,7.80
2015,10,05,02,41,7.80
2015,10,05,02,42,7.80
2015,10,05,02,43,7.80
2015,10,05,02,44,7.80
2015,10,05,02,45,7.80
2015,10,05,02,46,7.80
2015,10,05,02,47,7.80
2015,10,05,02,48,7.80
2015,10,05,02,49,7.80
2015,10,05,02,50,7.80
2015,10,05,02,51,7.80
2015,10,05,02,52,7.70
2015,10,05,02,53,7.70
2015,10,05,02,54,7.70
2015,10,05,02,55,7.70
2015,10,05,02,56,7.70
2015,10,05,02,57,7.70
2015,10,05,02,58,7.70
2015,10,05,02,59,7.70
2015,10,05,03,00,7.70
2015,10,05,03,01,7.70
2015,10,05,03,02,7.60
2015,10,05,03,03,7.60
2015,10,05,03,04,7.60
2015,10,05,03,05,7.60
2015,10,05,03,06,7.60
2015,10,05,03,07,7.60
2015,10,05,03,08,7.60
2015,10,05,03,09,7.60
2015,10,05,03,10,7.60
2015,10,05,03,11,7.60
2015,10,05,03,12,7.60
2015,10,05,03,13,7.60
2015,10,05,03,14,7.50
2015,10,05,03,15,7.50
2015,10,05,03,16,7.50
2015,10,05,03,17,7.50
2015,10,05,03,18,7.50
2015,10,05,03,19,7.50
2015,10,05,03,20,7.40
2015,10,05,03,21,7.40
2015,10,05,03,22,7.40
2015,10,05,03,23,7.40
2015,10,05,03,24,7.40
2015,10,05,03,25,7.40
2015,10,05,03,26,7.40
2015,10,05,03,27,7.40
2015,10,05,03,28,7.30
2015,10,05,03,29,7.30
2015,10,05,03,30,7.30
2015,10,05,03,31,7.30
2015,10,05,03,32,7.30
2015,10,05,03,33,7.30
2015,10,05,03,34,7.30
2015,10,05,03,35,7.30
2015,10,05,03,36,7.30
2015,10,05,03,37,7.30
2015,10,05,03,38,7.20
2015,10,05,03,39,7.20
2015,10,05,03,40,7.20
2015,10,05,03,41,7.20
2015,10,05,03,42,7.20
2015,10,05,03,43,7.20
2015,10,05,03,44,7.20
2015,10,05,03,45,7.20
2015,10,05,03,46,7.20
2015,10,05,03,47,7.20
2015,10,05,03,48,7.20
2015,10,05,03,49,7.20
2015,10,05,03,50,7.20
2015,10,05,03,51,7.20
2015,10,05,03,52,7.20
2015,10,05,03,53,7.20
2015,10,05,03,54,7.20
2015,10,05,03,55,7.20
2015,10,05,03,56,7.20
2015,10,05,03,57,7.20
2015,10,05,03,58,7.30
2015,10,05,03,59,7.30
2015,10,05,04,00,7.30
2015,10,05,04,01,7.30
2015,10,05,04,02,7.30
2015,10,05,04,03,7.30
2015,10,05,04,04,7.30
2015,10,05,04,05,7.30
2015,10,05,04,06,7.30
2015,10,05,04,07,7.30
2015,10,05,04,08,7.20
2015,10,05,04,09,7.20
2015,10,05,04,10,7.20
2015,10,05,04,11,7.20
2015,10,05,04,12,7.20
2015,10,05,04,13,7.10
2015,10,05,04,14,7.10
2015,10,05,04,15,7.10
2015,10,05,04,16,7.10
2015,10,05,04,17,7.10
2015,10,05,04,18,7.10
2015,10,05,04,19,7.10
2015,10,05,04,20,7.00
2015,10,05,04,21,7.00
2015,10,05,04,22,7.00
2015,10,05,04,23,7.00
2015,10,05,04,24,6.90
2015,10,05,04,25,6.90
2015,10,05,04,26,6.90
2015,10,05,04,27,6.90
2015,10,05,04,28,6.90
2015,10,05,04,29,6.90
2015,10,05,04,30,6.90
2015,10,05,04,31,6.80
2015,10,05,04,32,6.80
2015,10,05,04,33,6.80
2015,10,05,04,34,6.80
2015,10,05,04,35,6.80
2015,10,05,04,36,6.80
2015,10,05,04,37,6.80
2015,10,05,04,38,6.80
2015,10,05,04,39,6.80
2015,10,05,04,40,6.80
2015,10,05,04,41,6.80
2015,10,05,04,42,6.80
2015,10,05,04,43,6.80
2015,10,05,04,44,6.80
2015,10,05,04,45,6.80
2015,10,05,04,46,6.80
2015,10,05,04,47,6.80
2015,10,05,04,48,6.80
2015,10,05,04,49,6.80
2015,10,05,04,50,6.80
2015,10,05,04,51,6.80
2015,10,05,04,52,6.80
2015,10,05,04,53,6.80
2015,10,05,04,54,6.80
2015,10,05,04,55,6.80
2015,10,05,04,56,6.80
2015,10,05,04,57,6.80
2015,10,05,04,58,6.80
2015,10,05,04,59,6.80
2015,10,05,05,00,6.80
2015,10,05,05,01,6.80
2015,10,05,05,02,6.80
2015,10,05,05,03,6.80
2015,10,05,05,04,6.80
2015,10,05,05,05,6.80
2015,10,05,05,06,6.80
2015,10,05,05,07,6.80
2015,10,05,05,08,6.80
2015,10,05,05,09,6.70
2015,10,05,05,10,6.70
2015,10,05,05,11,6.70
2015,10,05,05,12,6.70
2015,10,05,05,13,6.70
2015,10,05,05,14,6.70
2015,10,05,05,15,6.70
2015,10,05,05,16,6.70
2015,10,05,05,17,6.60
2015,10,05,05,18,6.60
2015,10,05,05,19,6.60
2015,10,05,05,20,6.60
2015,10,05,05,21,6.60
2015,10,05,05,22,6.60
2015,10,05,05,23,6.60
2015,10,05,05,24,6.60
2015,10,05,05,25,6.60
2015,10,05,05,26,6.50
2015,10,05,05,27,6.50
2015,10,05,05,28,6.50
2015,10,05,05,29,6.50
2015,10,05,05,30,6.50
2015,10,05,05,31,6.50
2015,10,05,05,32,6.50
2015,10,05,05,33,6.40
2015,10,05,05,34,6.40
2015,10,05,05,35,6.40
2015,10,05,05,36,6.40
2015,10,05,05,37,6.40
2015,10,05,05,38,6.40
2015,10,05,05,39,6.40
2015,10,05,05,40,6.40
2015,10,05,05,41,6.40
2015,10,05,05,42,6.40
2015,10,05,05,43,6.40
2015,10,05,05,44,6.40
2015,10,05,05,45,6.40
2015,10,05,05,46,6.40
2015,10,05,05,47,6.30
2015,10,05,05,48,6.30
2015,10,05,05,49,6.30
2015,10,05,05,50,6.30
2015,10,05,05,51,6.30
2015,10,05,05,52,6.30
2015,10,05,05,53,6.30
2015,10,05,05,54,6.30
2015,10,05,05,55,6.30
2015,10,05,05,56,6.30
2015,10,05,05,57,6.30
2015,10,05,05,58,6.30
2015,10,05,05,59,6.20
2015,10,05,06,00,6.20
2015,10,05,06,01,6.20
2015,10,05,06,02,6.20
2015,10,05,06,03,6.20
2015,10,05,06,04,6.20
2015,10,05,06,05,6.20
2015,10,05,06,06,6.20
2015,10,05,06,07,6.20
2015,10,05,06,08,6.20
2015,10,05,06,09,6.20
2015,10,05,06,10,6.20
2015,10,05,06,11,6.20
2015,10,05,06,12,6.20
2015,10,05,06,13,6.20
2015,10,05,06,14,6.20
2015,10,05,06,15,6.30
2015,10,05,06,16,6.30
2015,10,05,06,17,6.30
2015,10,05,06,18,6.30
2015,10,05,06,19,6.30
2015,10,05,06,20,6.30
2015,10,05,06,21,6.30
2015,10,05,06,22,6.30
2015,10,05,06,23,6.30
2015,10,05,06,24,6.30
2015,10,05,06,25,6.30
2015,10,05,06,26,6.30
2015,10,05,06,27,6.30
2015,10,05,06,28,6.30
2015,10,05,06,29,6.30
2015,10,05,06,30,6.30
2015,10,05,06,31,6.30
2015,10,05,06,32,6.20
2015,10,05,06,33,6.20
2015,10,05,06,34,6.20
2015,10,05,06,35,6.20
2015,10,05,06,36,6.20
2015,10,05,06,37,6.20
2015,10,05,06,38,6.20
2015,10,05,06,39,6.20
2015,10,05,06,40,6.20
2015,10,05,06,41,6.20
2015,10,05,06,42,6.20
2015,10,05,06,43,6.20
2015,10,05,06,44,6.20
2015,10,05,06,45,6.20
2015,10,05,06,46,6.20
2015,10,05,06,47,6.20
2015,10,05,06,48,6.20
2015,10,05,06,49,6.20
2015,10,05,06,50,6.20
2015,10,05,06,51,6.20
2015,10,05,06,52,6.20
2015,10,05,06,53,6.20
2015,10,05,06,54,6.20
2015,10,05,06,55,6.20
2015,10,05,06,56,6.20
2015,10,05,06,57,6.10
2015,10,05,06,58,6.10
2015,10,05,06,59,6.10
2015,10,05,07,00,6.10
2015,10,05,07,01,6.10
2015,10,05,07,02,6.10
2015,10,05,07,03,6.10
2015,10,05,07,04,6.10
2015,10,05,07,05,6.10
2015,10,05,07,06,6.10
2015,10,05,07,07,6.10
2015,10,05,07,08,6.10
2015,10,05,07,09,6.10
2015,10,05,07,10,6.10
2015,10,05,07,11,6.10
2015,10,05,07,12,6.10
2015,10,05,07,13,6.10
2015,10,05,07,14,6.10
2015,10,05,07,15,6.10
2015,10,05,07,16,6.20
2015,10,05,07,17,6.20
2015,10,05,07,18,6.20
2015,10,05,07,19,6.20
2015,10,05,07,20,6.20
2015,10,05,07,21,6.20
2015,10,05,07,22,6.20
2015,10,05,07,23,6.20
2015,10,05,07,24,6.20
2015,10,05,07,25,6.20
2015,10,05,07,26,6.20
2015,10,05,07,27,6.20
2015,10,05,07,28,6.20
2015,10,05,07,29,6.20
2015,10,05,07,30,6.20
2015,10,05,07,31,6.20
2015,10,05,07,32,6.20
2015,10,05,07,33,6.20
2015,10,05,07,34,6.20
2015,10,05,07,35,6.20
2015,10,05,07,36,6.20
2015,10,05,07,37,6.20
2015,10,05,07,38,6.20
2015,10,05,07,39,6.20
2015,10,05,07,40,6.20
2015,10,05,07,41,6.10
2015,10,05,07,42,6.20
2015,10,05,07,43,6.10
2015,10,05,07,44,6.10
2015,10,05,07,45,6.10
2015,10,05,07,46,6.10
2015,10,05,07,47,6.20
2015,10,05,07,48,6.20
2015,10,05,07,49,6.20
2015,10,05,07,50,6.20
2015,10,05,07,51,6.20
2015,10,05,07,52,6.20
2015,10,05,07,53,6.20
2015,10,05,07,54,6.20
2015,10,05,07,55,6.20
2015,10,05,07,56,6.30
2015,10,05,07,57,6.30
2015,10,05,07,58,6.30
2015,10,05,07,59,6.30
2015,10,05,08,00,6.30
2015,10,05,08,01,6.40
2015,10,05,08,02,6.40
2015,10,05,08,03,6.40
2015,10,05,08,04,6.40
2015,10,05,08,05,6.40
2015,10,05,08,06,6.40
2015,10,05,08,07,6.40
2015,10,05,08,08,6.40
2015,10,05,08,09,6.40
2015,10,05,08,10,6.40
2015,10,05,08,11,6.40
2015,10,05,08,12,6.40
2015,10,05,08,13,6.40
2015,10,05,08,14,6.50
2015,10,05,08,15,6.50
2015,10,05,08,16,6.50
2015,10,05,08,17,6.50
2015,10,05,08,18,6.50
2015,10,05,08,19,6.50
2015,10,05,08,20,6.60
2015,10,05,08,21,6.60
2015,10,05,08,22,6.60
2015,10,05,08,23,6.60
2015,10,05,08,24,6.60
2015,10,05,08,25,6.60
2015,10,05,08,26,6.60
2015,10,05,08,27,6.60
2015,10,05,08,28,6.60
2015,10,05,08,29,6.60
2015,10,05,08,30,6.60
2015,10,05,08,31,6.60
2015,10,05,08,32,6.60
2015,10,05,08,33,6.70
2015,10,05,08,34,6.70
2015,10,05,08,35,6.70
2015,10,05,08,36,6.70
2015,10,05,08,37,6.70
2015,10,05,08,38,6.70
2015,10,05,08,39,6.70
2015,10,05,08,40,6.70
2015,10,05,08,41,6.70
2015,10,05,08,42,6.80
2015,10,05,08,43,6.80
2015,10,05,08,44,6.80
2015,10,05,08,45,6.80
2015,10,05,08,46,6.80
2015,10,05,08,47,6.80
2015,10,05,08,48,6.80
2015,10,05,08,49,6.80
2015,10,05,08,50,6.80
2015,10,05,08,51,6.90
2015,10,05,08,52,6.90
2015,10,05,08,53,6.90
2015,10,05,08,54,6.90
2015,10,05,08,55,6.90
2015,10,05,08,56,6.90
2015,10,05,08,57,6.90
2015,10,05,08,58,6.90
2015,10,05,08,59,6.90
2015,10,05,09,00,6.90
2015,10,05,09,01,6.90
2015,10,05,09,02,7.00
2015,10,05,09,04,7.00
2015,10,05,09,05,7.00
2015,10,05,09,06,7.10
2015,10,05,09,07,7.10
2015,10,05,09,08,7.10
2015,10,05,09,09,7.10
2015,10,05,09,10,7.10
2015,10,05,09,11,7.20
2015,10,05,09,13,7.20
2015,10,05,09,14,7.30
2015,10,05,09,15,7.30
2015,10,05,09,16,7.40
2015,10,05,09,17,7.40
2015,10,05,09,18,7.50
2015,10,05,09,19,7.60
2015,10,05,09,20,7.60
2015,10,05,09,21,7.70
2015,10,05,09,22,7.70
2015,10,05,09,23,7.80
2015,10,05,09,24,7.80
2015,10,05,09,25,7.80
2015,10,05,09,26,7.80
2015,10,05,09,27,7.90
2015,10,05,09,28,7.90
2015,10,05,09,29,7.90
2015,10,05,09,30,7.90
2015,10,05,09,31,7.90
2015,10,05,09,32,7.90
2015,10,05,09,33,8.00
2015,10,05,09,34,8.10
2015,10,05,09,35,8.10
2015,10,05,09,36,8.10
2015,10,05,09,37,8.10
2015,10,05,09,38,8.20
2015,10,05,09,39,8.20
2015,10,05,09,40,8.20
2015,10,05,09,41,8.30
2015,10,05,09,42,8.30
2015,10,05,09,43,8.30
2015,10,05,09,44,8.40
2015,10,05,09,45,8.40
2015,10,05,09,46,8.50
2015,10,05,09,47,8.60
2015,10,05,09,48,8.70
2015,10,05,09,49,8.70
2015,10,05,09,50,8.80
2015,10,05,09,51,8.80
2015,10,05,09,52,8.90
2015,10,05,09,53,8.90
2015,10,05,09,54,9.00
2015,10,05,09,55,9.10
2015,10,05,09,56,9.20
2015,10,05,09,57,9.20
2015,10,05,09,58,9.30
2015,10,05,09,59,9.30
2015,10,05,10,00,9.40
2015,10,05,10,01,9.50
2015,10,05,10,02,9.60
2015,10,05,10,03,9.70
2015,10,05,10,04,9.70
2015,10,05,10,05,9.80
2015,10,05,10,06,9.80
2015,10,05,10,07,9.90
2015,10,05,10,08,10.00
2015,10,05,10,09,10.10
2015,10,05,10,10,10.20
2015,10,05,10,11,10.20
2015,10,05,10,12,10.30
2015,10,05,10,13,10.30
2015,10,05,10,14,10.40
2015,10,05,10,15,10.40
2015,10,05,10,16,10.50
2015,10,05,10,17,10.50
2015,10,05,10,18,10.50
2015,10,05,10,19,10.60
2015,10,05,10,20,10.60
2015,10,05,10,21,10.70
2015,10,05,10,22,10.70
2015,10,05,10,23,10.70
2015,10,05,10,24,10.80
2015,10,05,10,25,10.80
2015,10,05,10,26,10.80
2015,10,05,10,27,10.90
2015,10,05,10,28,10.90
2015,10,05,10,29,11.00
2015,10,05,10,30,11.00
2015,10,05,10,31,11.10
2015,10,05,10,32,11.10
2015,10,05,10,34,11.10
2015,10,05,10,35,11.10
2015,10,05,10,36,11.10
2015,10,05,10,37,11.20
2015,10,05,10,38,11.20
2015,10,05,10,39,11.30
2015,10,05,10,40,11.30
2015,10,05,10,41,11.40
2015,10,05,10,42,11.40
2015,10,05,10,43,11.50
2015,10,05,10,44,11.60
2015,10,05,10,45,11.60
2015,10,05,10,46,11.70
2015,10,05,10,47,11.80
2015,10,05,10,48,11.80
2015,10,05,10,49,11.90
2015,10,05,10,50,11.90
2015,10,05,10,51,12.10
2015,10,05,10,52,12.10
2015,10,05,10,53,12.20
2015,10,05,10,54,12.20
2015,10,05,10,55,12.30
2015,10,05,10,56,12.30
2015,10,05,10,57,12.40
2015,10,05,10,58,12.40
2015,10,05,10,59,12.40
2015,10,05,11,00,12.40
2015,10,05,11,01,12.50
2015,10,05,11,02,12.60
2015,10,05,11,03,12.60
2015,10,05,11,04,12.70
2015,10,05,11,05,12.70
2015,10,05,11,06,12.70
2015,10,05,11,07,12.80
2015,10,05,11,09,12.80
2015,10,05,11,10,12.80
2015,10,05,11,11,12.90
2015,10,05,11,12,12.90
2015,10,05,11,13,13.10
2015,10,05,11,14,13.10
2015,10,05,11,15,13.20
2015,10,05,11,16,13.20
2015,10,05,11,17,13.20
2015,10,05,11,18,13.20
2015,10,05,11,19,13.20
2015,10,05,11,20,13.20
2015,10,05,11,21,13.20
2015,10,05,11,22,13.10
2015,10,05,11,23,13.10
2015,10,05,11,24,13.10
2015,10,05,11,25,13.20
2015,10,05,11,26,13.20
2015,10,05,11,28,13.30
2015,10,05,11,29,13.30
2015,10,05,11,30,13.40
2015,10,05,11,31,13.40
2015,10,05,11,32,13.50
2015,10,05,11,33,13.60
2015,10,05,11,34,13.60
2015,10,05,11,35,13.70
2015,10,05,11,36,13.70
2015,10,05,11,37,13.80
2015,10,05,11,38,13.80
2015,10,05,11,39,13.90
2015,10,05,11,40,13.90
2015,10,05,11,41,14.00
2015,10,05,11,42,14.10
2015,10,05,11,43,14.10
2015,10,05,11,44,14.20
2015,10,05,11,45,14.20
2015,10,05,11,46,14.20
2015,10,05,11,47,14.20
2015,10,05,11,48,14.30
2015,10,05,11,49,14.30
2015,10,05,11,50,14.40
2015,10,05,11,51,14.40
2015,10,05,11,52,14.50
2015,10,05,11,53,14.60
2015,10,05,11,54,14.60
2015,10,05,11,55,14.70
2015,10,05,11,56,14.70
2015,10,05,11,57,14.70
2015,10,05,11,58,14.70
2015,10,05,11,59,14.80
2015,10,05,12,00,14.80
2015,10,05,12,01,14.80
2015,10,05,12,02,14.90
2015,10,05,12,03,14.90
2015,10,05,12,04,15.00
2015,10,05,12,05,15.10
2015,10,05,12,06,15.20
2015,10,05,12,07,15.20
2015,10,05,12,08,15.30
2015,10,05,12,09,15.30
2015,10,05,12,10,15.40
2015,10,05,12,11,15.50
2015,10,05,12,12,15.50
2015,10,05,12,13,15.50
2015,10,05,12,14,15.50
2015,10,05,12,15,15.50
2015,10,05,12,16,15.60
2015,10,05,12,17,15.60
2015,10,05,12,18,15.60
2015,10,05,12,19,15.70
2015,10,05,12,20,15.70
2015,10,05,12,21,15.70
2015,10,05,12,22,15.80
2015,10,05,12,23,15.80
2015,10,05,12,24,15.90
2015,10,05,12,25,15.90
2015,10,05,12,26,15.90
2015,10,05,12,27,16.10
2015,10,05,12,28,16.10
2015,10,05,12,29,16.20
2015,10,05,12,30,16.20
2015,10,05,12,31,16.30
2015,10,05,12,32,16.30
2015,10,05,12,33,16.40
2015,10,05,12,34,16.40
2015,10,05,12,35,16.40
2015,10,05,12,36,16.50
2015,10,05,12,37,16.60
2015,10,05,12,38,16.60
2015,10,05,12,39,16.60
2015,10,05,12,40,16.60
2015,10,05,12,41,16.60
2015,10,05,12,42,16.70
2015,10,05,12,43,16.60
2015,10,05,12,44,16.60
2015,10,05,12,45,16.60
2015,10,05,12,46,16.60
2015,10,05,12,47,16.60
2015,10,05,12,48,16.60
2015,10,05,12,49,16.70
2015,10,05,12,50,16.70
2015,10,05,12,51,16.80
2015,10,05,12,52,16.90
2015,10,05,12,53,16.90
2015,10,05,12,54,17.10
2015,10,05,12,55,17.10
2015,10,05,12,56,17.20
2015,10,05,12,57,17.20
2015,10,05,12,58,17.20
2015,10,05,12,59,17.20
2015,10,05,13,00,17.20
2015,10,05,13,01,17.20
2015,10,05,13,02,17.30
2015,10,05,13,03,17.30
2015,10,05,13,04,17.40
2015,10,05,13,05,17.40
2015,10,05,13,06,17.50
2015,10,05,13,07,17.60
2015,10,05,13,08,17.60
2015,10,05,13,09,17.60
2015,10,05,13,10,17.70
2015,10,05,13,11,17.80
2015,10,05,13,12,17.80
2015,10,05,13,13,17.80
2015,10,05,13,14,17.80
2015,10,05,13,15,17.90
2015,10,05,13,16,17.90
2015,10,05,13,17,18.10
2015,10,05,13,18,18.10
2015,10,05,13,19,18.20
2015,10,05,13,20,18.30
2015,10,05,13,21,18.30
2015,10,05,13,22,18.40
2015,10,05,13,23,18.40
2015,10,05,13,24,18.50
2015,10,05,13,25,18.50
2015,10,05,13,26,18.60
2015,10,05,13,27,18.60
2015,10,05,13,28,18.60
2015,10,05,13,29,18.60
2015,10,05,13,30,18.60
2015,10,05,13,31,18.70
2015,10,05,13,32,18.80
2015,10,05,13,33,18.80
2015,10,05,13,34,18.90
2015,10,05,13,35,18.90
2015,10,05,13,36,19.00
2015,10,05,13,37,19.10
2015,10,05,13,38,19.10
2015,10,05,13,39,19.10
2015,10,05,13,40,19.20
2015,10,05,13,41,19.20
2015,10,05,13,42,19.20
2015,10,05,13,43,19.20
2015,10,05,13,44,19.20
2015,10,05,13,45,19.20
2015,10,05,13,46,19.30
2015,10,05,13,47,19.30
2015,10,05,13,48,19.30
2015,10,05,13,49,19.30
2015,10,05,13,50,19.40
2015,10,05,13,51,19.40
2015,10,05,13,52,19.50
2015,10,05,13,53,19.60
2015,10,05,13,54,19.60
2015,10,05,13,55,19.60
2015,10,05,13,56,19.50
2015,10,05,13,57,19.40
2015,10,05,13,58,19.40
2015,10,05,13,59,19.50
2015,10,05,14,00,19.60
2015,10,05,14,01,19.60
2015,10,05,14,02,19.60
2015,10,05,14,03,19.70
2015,10,05,14,04,19.80
2015,10,05,14,05,19.90
2015,10,05,14,06,20.00
2015,10,05,14,07,20.10
2015,10,05,14,08,20.20
2015,10,05,14,09,20.20
2015,10,05,14,10,20.20
2015,10,05,14,11,20.30
2015,10,05,14,12,20.30
2015,10,05,14,13,20.40
2015,10,05,14,14,20.40
2015,10,05,14,15,20.40
2015,10,05,14,16,20.40
2015,10,05,14,17,20.40
2015,10,05,14,18,20.40
2015,10,05,14,19,20.50
2015,10,05,14,20,20.50
2015,10,05,14,21,20.50
2015,10,05,14,22,20.40
2015,10,05,14,23,20.30
2015,10,05,14,24,20.30
2015,10,05,14,25,20.40
2015,10,05,14,26,20.40
2015,10,05,14,27,20.50
2015,10,05,14,28,20.60
2015,10,05,14,29,20.60
2015,10,05,14,30,20.70
2015,10,05,14,31,20.60
2015,10,05,14,32,20.60
2015,10,05,14,33,20.50
2015,10,05,14,34,20.40
2015,10,05,14,35,20.40
2015,10,05,14,36,20.50
2015,10,05,14,37,20.60
2015,10,05,14,38,20.60
2015,10,05,14,39,20.60
2015,10,05,14,40,20.50
2015,10,05,14,41,20.40
2015,10,05,14,42,20.50
2015,10,05,14,43,20.50
2015,10,05,14,44,20.40
2015,10,05,14,45,20.40
2015,10,05,14,46,20.40
2015,10,05,14,47,20.40
2015,10,05,14,48,20.40
2015,10,05,14,49,20.40
2015,10,05,14,50,20.50
2015,10,05,14,51,20.60
2015,10,05,14,52,20.70
2015,10,05,14,53,20.70
2015,10,05,14,54,20.80
2015,10,05,14,55,20.70
2015,10,05,14,56,20.70
2015,10,05,14,57,20.60
2015,10,05,14,58,20.60
2015,10,05,14,59,20.60
2015,10,05,15,00,20.70
2015,10,05,15,01,20.70
2015,10,05,15,02,20.80
2015,10,05,15,03,20.80
2015,10,05,15,04,20.90
2015,10,05,15,05,20.90
2015,10,05,15,06,20.90
2015,10,05,15,07,20.80
2015,10,05,15,08,20.80
2015,10,05,15,09,20.70
2015,10,05,15,10,20.70
2015,10,05,15,11,20.60
2015,10,05,15,12,20.60
2015,10,05,15,13,20.60
2015,10,05,15,14,20.70
2015,10,05,15,15,20.70
2015,10,05,15,16,20.70
2015,10,05,15,17,20.70
2015,10,05,15,18,20.70
2015,10,05,15,19,20.60
2015,10,05,15,20,20.50
2015,10,05,15,21,20.50
2015,10,05,15,22,20.40
2015,10,05,15,23,20.40
2015,10,05,15,24,20.40
2015,10,05,15,25,20.40
2015,10,05,15,26,20.60
2015,10,05,15,27,20.60
2015,10,05,15,28,20.70
2015,10,05,15,29,20.80
2015,10,05,15,30,20.80
2015,10,05,15,31,20.80
2015,10,05,15,32,20.90
2015,10,05,15,33,21.00
2015,10,05,15,34,21.10
2015,10,05,15,35,21.20
2015,10,05,15,36,21.30
2015,10,05,15,37,21.30
2015,10,05,15,38,21.40
2015,10,05,15,39,21.60
2015,10,05,15,40,21.60
2015,10,05,15,41,21.70
2015,10,05,15,42,21.70
2015,10,05,15,43,21.80
2015,10,05,15,44,21.80
2015,10,05,15,45,21.90
2015,10,05,15,46,22.00
2015,10,05,15,47,22.10
2015,10,05,15,48,22.20
2015,10,05,15,49,22.20
2015,10,05,15,50,22.30
2015,10,05,15,51,22.30
2015,10,05,15,52,22.40
2015,10,05,15,53,22.40
2015,10,05,15,54,22.50
2015,10,05,15,55,22.60
2015,10,05,15,56,22.70
2015,10,05,15,57,22.80
2015,10,05,15,58,22.80
2015,10,05,15,59,22.90
2015,10,05,16,00,22.90
2015,10,05,16,01,22.90
2015,10,05,16,02,22.90
2015,10,05,16,03,22.90
2015,10,05,16,04,22.80
2015,10,05,16,05,22.80
2015,10,05,16,07,22.70
2015,10,05,16,08,22.70
2015,10,05,16,09,22.60
2015,10,05,16,10,22.60
2015,10,05,16,11,22.60
2015,10,05,16,12,22.60
2015,10,05,16,13,22.40
2015,10,05,16,14,22.40
2015,10,05,16,15,22.30
2015,10,05,16,16,22.30
2015,10,05,16,17,22.30
2015,10,05,16,18,22.30
2015,10,05,16,19,22.30
2015,10,05,16,20,22.30
2015,10,05,16,21,22.30
2015,10,05,16,22,22.30
2015,10,05,16,23,22.30
2015,10,05,16,24,22.30
2015,10,05,16,25,22.30
2015,10,05,16,26,22.30
2015,10,05,16,27,22.30
2015,10,05,16,28,22.30
2015,10,05,16,29,22.40
2015,10,05,16,30,22.40
2015,10,05,16,31,22.40
2015,10,05,16,32,22.40
2015,10,05,16,33,22.40
2015,10,05,16,34,22.40
2015,10,05,16,35,22.50
2015,10,05,16,36,22.50
2015,10,05,16,37,22.60
2015,10,05,16,38,22.70
2015,10,05,16,39,22.70
2015,10,05,16,40,22.70
2015,10,05,16,41,22.70
2015,10,05,16,42,22.60
2015,10,05,16,43,22.40
2015,10,05,16,44,22.30
2015,10,05,16,45,22.20
2015,10,05,16,46,22.10
2015,10,05,16,47,22.00
2015,10,05,16,48,21.90
2015,10,05,16,49,21.80
2015,10,05,16,50,21.70
2015,10,05,16,51,21.60
2015,10,05,16,52,21.60
2015,10,05,16,53,21.50
2015,10,05,16,54,21.40
2015,10,05,16,55,21.30
2015,10,05,16,56,21.30
2015,10,05,16,57,21.30
2015,10,05,16,58,21.20
2015,10,05,16,59,21.20
2015,10,05,17,00,21.30
2015,10,05,17,01,21.30
2015,10,05,17,02,21.30
2015,10,05,17,03,21.30
2015,10,05,17,04,21.30
2015,10,05,17,05,21.30
2015,10,05,17,06,21.40
2015,10,05,17,07,21.30
2015,10,05,17,08,21.30
2015,10,05,17,09,21.20
2015,10,05,17,10,21.10
2015,10,05,17,11,21.00
2015,10,05,17,12,20.90
2015,10,05,17,13,20.90
2015,10,05,17,14,20.90
2015,10,05,17,15,20.90
2015,10,05,17,16,20.90
2015,10,05,17,17,20.90
2015,10,05,17,18,20.80
2015,10,05,17,19,20.80
2015,10,05,17,20,20.80
2015,10,05,17,21,20.80
2015,10,05,17,22,20.80
2015,10,05,17,23,20.80
2015,10,05,17,24,20.80
2015,10,05,17,25,20.70
2015,10,05,17,26,20.70
2015,10,05,17,27,20.70
2015,10,05,17,28,20.60
2015,10,05,17,29,20.60
2015,10,05,17,30,20.50
2015,10,05,17,31,20.40
2015,10,05,17,32,20.30
2015,10,05,17,33,20.20
2015,10,05,17,34,20.20
2015,10,05,17,35,20.10
2015,10,05,17,36,20.00
2015,10,05,17,37,19.90
2015,10,05,17,38,19.90
2015,10,05,17,39,19.80
2015,10,05,17,40,19.80
2015,10,05,17,41,19.70
2015,10,05,17,42,19.70
2015,10,05,17,43,19.60
2015,10,05,17,44,19.40
2015,10,05,17,45,19.40
2015,10,05,17,46,19.30
2015,10,05,17,47,19.20
2015,10,05,17,48,19.20
2015,10,05,17,49,19.10
2015,10,05,17,50,19.10
2015,10,05,17,51,19.00